Stations météo

réclame
Mon MeteoGroup
Torpshammar, Suède (2343): Température de l'air & dewpoint: 18.02.2018 13:00:00 - 24.02.2018 13:00:00 (CET)Torpshammar, Suède (2343): Vitesse du vent & gusts: 18.02.2018 13:00:00 - 24.02.2018 13:00:00 (CET)Torpshammar, Suède (2343): Direction du vent: 18.02.2018 13:00:00 - 24.02.2018 13:00:00 (CET)Torpshammar, Suède (2343): reduced air pressure: 18.02.2018 13:00:00 - 24.02.2018 13:00:00 (CET)Torpshammar, Suède (2343): visibility: 18.02.2018 13:00:00 - 24.02.2018 13:00:00 (CET)Torpshammar, Suède (2343): Quantités de précipitations: 18.02.2018 13:00:00 - 24.02.2018 13:00:00 (CET)
Date & Time tt [°C] td [°C] ff [km/h] ff [knt] fx [km/h] fx [knt] dd ppp [hPa] vv [km] rr [mm]
24.02.2018 13:00:00 - - - - - - - - - -
24.02.2018 12:00:00 -10,1 -11,8 5 3 16 8 E 1040,8 1,9 0,6
24.02.2018 11:00:00 -10,6 -12,5 5 3 14 7 E 1041,1 2,0 0,2
24.02.2018 10:00:00 -11,2 -13,1 3 2 10 5 E 1040,9 1,8 0,5
24.02.2018 09:00:00 -11,8 -13,7 4 2 11 6 E 1040,7 2,9 0,2
24.02.2018 08:00:00 -12,2 -14,1 5 3 14 7 E 1040,8 2,8 0,3
24.02.2018 07:00:00 -12,3 -14,2 3 2 8 5 ENE 1040,7 3,7 0,1
24.02.2018 06:00:00 -12,3 -14,2 5 3 12 6 E 1040,4 4,0 0,1
24.02.2018 05:00:00 -12,1 -14,0 3 1 8 5 E 1040,0 11 0,0
24.02.2018 04:00:00 -12,0 -13,9 2 1 9 5 E 1039,8 8 0,1
24.02.2018 03:00:00 -11,5 -13,4 3 2 10 5 E 1039,8 - 0,0
24.02.2018 02:00:00 -11,0 -12,9 0 0 6 4 N 1039,7 16 0,0
24.02.2018 01:00:00 -11,2 -12,9 0 0 5 3 N 1039,5 23 0,0
24.02.2018 00:00:00 -10,4 -12,3 0 0 6 3 N 1039,0 50 0,0
23.02.2018 23:00:00 -10,2 -12,2 0 0 3 2 N 1038,7 26 0,0
23.02.2018 22:00:00 -10,0 -12,3 0 0 5 3 N 1038,4 8 0,0
23.02.2018 21:00:00 -9,8 -12,4 0 0 7 4 N 1037,8 22 0,0
23.02.2018 20:00:00 -9,7 -12,3 2 1 7 4 SSE 1037,2 38 0,0
23.02.2018 19:00:00 -9,6 -12,4 3 1 6 3 E 1036,6 29 0,0
23.02.2018 18:00:00 -9,4 -12,2 0 0 6 4 N 1036,2 9 0,0
23.02.2018 17:00:00 -9,5 -12,3 0 0 7 4 N 1035,4 13 0,0
23.02.2018 16:00:00 -8,5 -12,0 3 1 12 6 ESE 1034,9 50 0,0
23.02.2018 15:00:00 -7,5 -11,8 0 0 8 5 N 1034,1 40 0,0
23.02.2018 14:00:00 -7,6 -11,9 3 2 10 5 NNE 1033,7 50 0,0
23.02.2018 13:00:00 -7,5 -12,0 3 1 9 5 NNE 1033,6 50 0,0
23.02.2018 12:00:00 -7,4 -11,8 0 0 8 5 N 1033,2 49 0,0
23.02.2018 11:00:00 -8,2 -12,3 0 0 8 4 N 1032,6 - 0,0
23.02.2018 10:00:00 -8,5 -12,5 2 1 7 4 ENE 1032,2 50 0,0
23.02.2018 09:00:00 -8,9 -12,2 0 0 9 5 N 1031,6 50 0,0
23.02.2018 08:00:00 -8,6 -11,4 0 0 8 4 N 1030,9 50 0,0
23.02.2018 07:00:00 -8,4 -10,8 0 0 5 3 N 1030,2 50 0,0
23.02.2018 06:00:00 -8,0 -10,2 0 0 6 4 N 1029,3 50 0,1
23.02.2018 05:00:00 -7,7 -9,9 0 0 7 4 N 1028,7 3,7 0,0
23.02.2018 04:00:00 -8,1 -9,3 0 0 5 3 N 1028,4 14 0,0
23.02.2018 03:00:00 -8,2 -9,3 0 0 0 0 N 1028,0 20 0,0
23.02.2018 02:00:00 -8,1 -9,3 0 0 0 0 N 1027,7 8 0,1
23.02.2018 01:00:00 -7,9 -9,1 0 0 1 1 N 1027,4 23 0,0
23.02.2018 00:00:00 -8,0 -9,2 0 0 2 1 N 1027,5 24 0,0
22.02.2018 23:00:00 -8,2 -9,4 0 0 2 1 N 1027,6 28 0,0
22.02.2018 22:00:00 -8,4 -9,6 0 0 2 1 N 1027,5 47 0,0
22.02.2018 21:00:00 -8,5 -9,7 0 0 1 1 N 1027,6 50 0,0
22.02.2018 20:00:00 -9,0 -10,1 0 0 2 1 N 1027,6 39 0,0
22.02.2018 19:00:00 -8,7 -9,9 0 0 2 1 N 1027,4 50 0,0
22.02.2018 18:00:00 -8,3 -9,6 0 0 1 1 N 1027,4 50 0,0
22.02.2018 17:00:00 -7,6 -9,5 0 0 0 0 N 1027,5 50 0,0
22.02.2018 16:00:00 -6,3 -9,0 0 0 3 1 N 1027,3 33 0,0
22.02.2018 15:00:00 -6,3 -9,2 0 0 5 3 N 1027,8 10 0,0
22.02.2018 14:00:00 -6,3 -9,5 2 1 4 2 SSW 1028,0 6 0,0
22.02.2018 13:00:00 -6,4 -10,3 0 0 5 3 N 1028,5 11 0,0
22.02.2018 12:00:00 -6,4 -10,4 0 0 6 3 N 1028,7 24 0,0
22.02.2018 11:00:00 -7,5 -10,4 3 2 6 3 W 1028,9 14 0,0
22.02.2018 10:00:00 -7,6 -10,3 0 0 2 1 N 1029,2 27 0,0
22.02.2018 09:00:00 -8,7 -10,3 0 0 3 1 N 1029,4 19 0,0
22.02.2018 08:00:00 -10,3 -11,6 0 0 3 2 N 1029,5 1,9 0,0
22.02.2018 07:00:00 -10,2 -11,4 0 0 8 4 N 1029,4 1,0 0,0
22.02.2018 06:00:00 -10,3 -11,3 0 0 3 1 N 1029,0 2,2 0,0
22.02.2018 05:00:00 -10,1 -11,3 0 0 2 1 N 1029,3 2,2 0,0
22.02.2018 04:00:00 -10,0 -11,2 0 0 3 1 N 1029,3 2,9 0,0
22.02.2018 03:00:00 -10,4 -11,4 0 0 2 1 N 1029,5 1,8 0,0
22.02.2018 02:00:00 -9,9 -11,0 0 0 4 2 N 1029,1 11 0,0
22.02.2018 01:00:00 -8,9 -10,2 0 0 6 3 N 1029,3 13 0,0
22.02.2018 00:00:00 -8,4 -9,9 3 1 8 4 E 1029,4 18 0,0
21.02.2018 23:00:00 -8,5 -10,0 0 0 9 5 N 1029,0 16 0,0
21.02.2018 22:00:00 -8,6 -10,1 0 0 11 6 N 1028,8 19 0,0
21.02.2018 21:00:00 -8,5 -10,1 0 0 11 6 N 1028,8 27 0,0
21.02.2018 20:00:00 -8,4 -10,2 3 2 11 6 E 1028,6 49 0,0
21.02.2018 19:00:00 -8,3 -10,1 5 3 14 8 E 1028,2 42 0,0
21.02.2018 18:00:00 -8,5 -10,3 3 2 10 6 E 1028,0 42 0,0
21.02.2018 17:00:00 -8,3 -10,2 3 1 10 5 E 1027,8 17 0,0
21.02.2018 16:00:00 -7,8 -10,2 3 2 13 7 E 1027,8 29 0,0
21.02.2018 15:00:00 -7,7 -10,5 4 2 9 5 E 1027,8 47 0,0
21.02.2018 14:00:00 -7,9 -10,7 3 2 8 4 E 1028,2 50 0,0
21.02.2018 13:00:00 -8,8 -11,8 2 1 9 5 SE 1028,7 48 0,0
21.02.2018 12:00:00 -9,2 -12,8 0 0 5 3 N 1028,8 36 0,0
21.02.2018 11:00:00 -11,9 -14,8 0 0 0 0 N 1029,0 1,9 0,0
21.02.2018 10:00:00 -15,4 -17,5 0 0 4 2 N 1029,1 1,2 0,0
21.02.2018 09:00:00 -17,7 -19,7 0 0 2 1 N 1028,8 11 0,0
21.02.2018 08:00:00 -16,2 -18,0 0 0 4 2 N 1028,8 1,3 0,0
21.02.2018 07:00:00 -17,0 -18,4 0 0 3 2 N 1028,7 1,0 0,1
21.02.2018 06:00:00 -18,7 -20,8 0 0 2 1 N 1028,5 50 0,1
21.02.2018 05:00:00 -15,2 -16,7 0 0 3 2 N 1028,4 3,5 0,0
21.02.2018 04:00:00 -13,2 -14,8 0 0 8 4 N 1028,7 0,9 0,0
21.02.2018 03:00:00 -13,6 -14,8 0 0 2 1 N 1028,8 2,1 0,0
21.02.2018 02:00:00 -13,7 -14,9 0 0 1 1 N 1028,7 25 0,0
21.02.2018 01:00:00 -11,8 -12,8 0 0 2 1 N 1028,8 13 0,0
21.02.2018 00:00:00 -10,0 -11,2 0 0 3 2 N 1028,9 2,0 0,2
20.02.2018 23:00:00 -9,5 -10,6 0 0 4 2 N 1028,9 3,6 0,0
20.02.2018 22:00:00 -8,8 -10,0 0 0 6 3 N 1028,7 2,8 0,1
20.02.2018 21:00:00 -8,5 -9,7 0 0 5 3 N 1028,6 2,7 0,1
20.02.2018 20:00:00 -8,4 -9,6 0 0 5 3 N 1028,7 2,6 0,1
20.02.2018 19:00:00 -8,4 -9,5 0 0 5 3 N 1028,8 2,4 0,1
20.02.2018 18:00:00 -8,4 -9,6 0 0 5 3 N 1028,8 3,2 0,0
20.02.2018 17:00:00 -8,0 -9,3 0 0 9 5 N 1028,6 4,3 0,0
20.02.2018 16:00:00 -7,8 -9,4 3 1 9 5 E 1028,9 4,7 0,0
20.02.2018 15:00:00 -7,9 -9,7 3 2 10 5 E 1029,0 6 0,0
20.02.2018 14:00:00 -8,3 -10,2 2 1 5 3 ESE 1029,4 3,7 0,0
20.02.2018 13:00:00 -9,6 -11,8 2 1 6 4 SSW 1029,8 2,5 0,0
20.02.2018 12:00:00 -10,5 -12,2 0 0 5 3 N 1029,9 7 0,0
20.02.2018 11:00:00 -12,2 -14,1 0 0 2 1 N 1030,4 6 0,0
20.02.2018 10:00:00 -13,0 -14,8 0 0 4 2 N 1030,4 4,3 0,0
20.02.2018 09:00:00 -14,0 -15,8 0 0 4 2 N 1030,7 4,4 0,1
20.02.2018 08:00:00 -15,0 -16,7 0 0 1 0 N 1030,9 8 0,0
20.02.2018 07:00:00 -16,2 -17,7 0 0 3 2 N 1031,1 3,9 0,0
20.02.2018 06:00:00 -16,3 -18,1 0 0 0 0 N 1031,1 17 0,0
20.02.2018 05:00:00 -16,2 -17,9 0 0 2 1 N 1031,2 11 0,0
20.02.2018 04:00:00 -16,4 -17,9 0 0 2 1 N 1031,4 44 0,0
20.02.2018 03:00:00 -16,0 -17,7 0 0 2 1 N 1031,6 18 0,0
20.02.2018 02:00:00 -14,3 -15,6 0 0 2 1 N 1031,6 50 0,0
20.02.2018 01:00:00 -11,7 -12,5 0 0 3 2 N 1031,5 26 0,0
20.02.2018 00:00:00 -7,9 -9,4 0 0 5 3 N 1031,6 6 0,0
19.02.2018 23:00:00 -7,8 -9,3 0 0 3 2 N 1031,6 7 0,0
19.02.2018 22:00:00 -7,8 -9,2 0 0 2 1 N 1031,6 11 0,0
19.02.2018 21:00:00 -7,8 -9,3 0 0 2 1 N 1031,6 21 0,0
19.02.2018 20:00:00 -7,5 -9,3 0 0 3 2 N 1031,5 28 0,0
19.02.2018 19:00:00 -6,5 -9,1 0 0 5 3 N 1031,1 43 0,0
19.02.2018 18:00:00 -6,0 -9,0 3 1 6 3 SE 1031,2 21 0,1
19.02.2018 17:00:00 -5,8 -8,9 0 0 5 3 N 1031,2 8 0,0
19.02.2018 16:00:00 -5,1 -8,8 0 0 6 4 N 1030,8 50 0,0
19.02.2018 15:00:00 -4,7 -8,8 0 0 7 4 N 1030,4 50 0,0
19.02.2018 14:00:00 -4,7 -9,2 4 2 10 5 SSE 1030,2 44 0,0
19.02.2018 13:00:00 -4,8 -9,1 5 3 9 5 ESE 1030,2 50 0,0
19.02.2018 12:00:00 -4,9 -8,6 5 3 11 6 E 1030,1 23 0,0
19.02.2018 11:00:00 -4,8 -8,0 2 1 13 7 E 1029,8 48 0,0
19.02.2018 10:00:00 -4,6 -7,8 2 1 8 4 E 1029,1 50 0,0
19.02.2018 09:00:00 -6,0 -7,8 0 0 2 1 N 1028,6 41 0,0
19.02.2018 08:00:00 -6,5 -8,0 0 0 5 3 N 1028,1 50 0,0
19.02.2018 07:00:00 -5,5 -7,6 2 1 8 4 ENE 1027,5 50 0,0
19.02.2018 06:00:00 -5,0 -7,0 0 0 7 4 N 1027,0 13 0,0
19.02.2018 05:00:00 -4,9 -6,6 0 0 5 3 N 1026,5 14 0,0
19.02.2018 04:00:00 -5,1 -6,1 0 0 1 1 N 1026,0 38 0,0
19.02.2018 03:00:00 -5,1 -6,2 0 0 1 1 N 1025,8 32 0,0
19.02.2018 02:00:00 -5,0 -6,4 0 0 5 3 N 1025,7 33 0,0
19.02.2018 01:00:00 -4,6 -6,6 2 1 6 3 ENE 1025,3 50 0,0
19.02.2018 00:00:00 -5,0 -6,4 0 0 3 1 N 1025,2 30 0,0
18.02.2018 23:00:00 -4,7 -6,4 0 0 4 2 N 1025,0 50 0,0
18.02.2018 22:00:00 -4,5 -6,3 0 0 6 3 N 1024,9 40 0,0
18.02.2018 21:00:00 -4,3 -6,1 3 2 9 5 E 1024,6 47 0,0
18.02.2018 20:00:00 -4,2 -6,2 3 1 13 7 E 1024,4 46 0,0
18.02.2018 19:00:00 -4,1 -5,8 6 3 14 8 E 1024,2 41 0,0
18.02.2018 18:00:00 -3,8 -5,3 5 3 16 9 E 1024,0 21 0,0
18.02.2018 17:00:00 -3,6 -5,3 6 3 16 9 E 1023,8 18 0,0
18.02.2018 16:00:00 -3,4 -4,8 4 2 16 9 E 1023,6 13 0,0
18.02.2018 15:00:00 -3,2 -4,8 5 3 14 8 E 1023,6 16 0,0
18.02.2018 14:00:00 -3,2 -4,8 4 2 15 8 E 1023,6 12 0,0
18.02.2018 13:00:00 -3,1 -4,8 4 2 16 9 E 1023,9 17 0,0

tt = Température de l'air
td = dewpoint
ff = Vitesse du vent
fx = gusts
dd = Direction du vent
ppp = reduced air pressure
vv = visibility
rr = Quantités de précipitations

stations d'obs. à proximité